Location: Most
(50.5133°N, 13.6207°E)
Time: 01:36:30
(UTC+02:00)

ISS - Pass Details

Date: 24 September 2021
Orbit: 417 x 423 km, 51.6° (Epoch: 22 October)

Event Time Altitude Azimuth Distance (km) Brightness Sun altitude
Rises 20:54:09 0° 274° (W) 2,364 1.4 -18.7°
Reaches altitude 10° 20:56:15 10° 277° (W) 1,501 0.2 -19.0°
Maximum altitude 20:59:37 70° 1° (N) 449 -3.7 -19.5°
Enters shadow 20:59:54 65° 41° (NE) 465 -3.7 -19.5°
